BEIDOU-3 M23

Last updated on Wed Sep 09 2026 00:02:49 GMT+0000 (Coordinated Universal Time)

1 44543U 19061B 26251.32240826 -.00000033 00000+0 00000+0 0 9995 2 44543 54.3925 179.8942 0005963 358.4523 173.4060 1.86227513 47347
UTC large
Height (km)
Speed (km/s)
/
Latitude / Longitude
Inclination (degrees)
Orbital Period (minutes)
Azimuth
Elevation
Range (km)
Doppler Factor

Next 0 passes for location: London (51.5072 / 0.1276)

No passes found over London.
BEIDOU-3 M23